GPS IIR-19(M)

operational
NORAD ID: 32711 Int'l Des: 2008-012 Owner: AFSMC Country: US Constellation: GPS
MEOGNSS

关于 GPS IIR-19(M)

正在加载描述...

实时位置

正在加载3D地球...

即将过境

高度历史

Altitude vs Time

uPlot chart will show altitude changes over time

两行轨道根数

1 32711U 08012A 25305.79082413 .00000098 00000-0 00000-0 0 9991
2 32711 54.4704 159.0082 0201161 244.5523 113.4454 2.00563691129197
Epoch: Nov 1, 2025 • Age: 50 hours

当前状态

高度 20718.4 km
速度 3.80 km/s
星下点 51.12°N, 142.48°W
发射日期 Mar 15, 2008
运行时间 17.6 years
类型 navigation

技术详情

分类 Payload
质量 1077.00 kg
干质量 910.00 kg
总质量 2032.00 kg
长度 1.50 m
直径 1.90 m
跨度 19.30 m
形状 Box + 2 Pan
制造商 LMVF
平台类型 Series 4000
阶段状态 In Orbit
所有者/国家 AFSMC/US

大型星座

Loading constellations...